Location: Carrigahorig
(53.0625°N, 8.1439°W)
Time: 00:13:15
(UTC+00:00)

NOSS 8 (E) - Pass Details

Date: 15 May 2026
Orbit: 366 x 1511 km, 63.3° (Epoch: 9 June)

Event Time Altitude Azimuth Distance (km) Brightness Sun altitude
Rises 23:43:40 0° 313° (NW) 2,242 8.9 -17.2°
Reaches altitude 10° 23:45:39 10° 316° (NW) 1,370 7.7 -17.3°
Maximum altitude 23:48:33 68° 41° (NE) 411 4.2 -17.4°
Enters shadow 23:49:22 42° 109° (ESE) 556 4.6 -17.4°
